Regional Weather Roundup
Issued by NWS

Home | Current Version | Previous Version | Text Only | Print | Product List | Glossary On
Versions: 1 2 3 4 5 6 7 8 9 10 11 12 13 14 15 16 17 18 19 20 21 22 23 24 25 26 27 28 29 30 31 32 33 34 35 36 37 38 39 40 41 42 43 44 45 46 47 48 49 50
000
ASUS43 KTOP 180708
RWRKS

WEATHER ROUNDUP FOR KANSAS
NATIONAL WEATHER SERVICE GOODLAND KS
200 AM CDT SAT APR 18 2015

NOTE:  "FAIR" INDICATES FEW OR NO CLOUDS BELOW 12,000 FEET WITH NO
SIGNIFICANT WEATHER AND/OR OBSTRUCTIONS TO VISIBILITY.

KSZ001>006-013>018-027>032-041>047-180800-
NORTHWEST KANSAS

CITY           SKY/WX    TMP DP  RH WIND       PRES   REMARKS
GOODLAND       PTCLDY    47  46  97 SE7       29.95F
HAYS           CLOUDY    59  50  72 W15G28    29.96R
HILL CITY      LGT RAIN  54  50  86 W13       29.97F
RUSSELL        CLOUDY    58  55  90 S7        29.92S
$$

KSZ061>065-074>080-084>089-180800-
SOUTHWEST KANSAS

CITY           SKY/WX    TMP DP  RH WIND       PRES   REMARKS
DODGE CITY     MOCLDY    57  54  89 SE9       29.94F
ELKHART          N/A    N/A N/A N/A MISG        N/A
GARDEN CITY    PTCLDY    45  43  93 CALM      29.93R
GREAT BEND     CLOUDY    59  54  82 S9        29.94S
LIBERAL        MOCLDY    54  48  82 S6        29.96S
PRATT          CLOUDY    59  54  82 SE6       29.96F THUNDER
$$

KSZ066>073-081>083-090>101-180800-
SOUTHEAST KANSAS

CITY           SKY/WX    TMP DP  RH WIND       PRES   REMARKS
CHANUTE        CLOUDY    62  61  96 S5        29.95F
COFFEYVILLE    CLOUDY    62  61  96 MISG      29.94F
HUTCHINSON     CLOUDY    61  56  83 SE5       29.94F
MEDICINE LODGE   N/A     62  56  80 SE7       29.94F
NEWTON         CLOUDY    61  54  77 SE6       29.96F
PARSONS        CLOUDY    62  61  96 CALM      29.96F
WICHITA INTL   CLOUDY    63  59  87 S3        29.93F THUNDER
WICHITA JABRA  CLOUDY    61  57  87 E3        29.93F
WICHITA MCCONL DRIZZLE   64  57  77 E6        29.93F
WINFIELD       CLOUDY    63  59  87 MISG      29.94F
$$

KSZ007>012-019>026-033>040-048>060-102>105-180800-
NORTHEAST KANSAS

CITY           SKY/WX    TMP DP  RH WIND       PRES   REMARKS
CONCORDIA      CLOUDY    57  56  96 SE6       29.95S
EMPORIA        CLOUDY    60  58  92 S3        29.95F
LAWRENCE       CLOUDY    58  55  90 CALM      29.96F
MANHATTAN      CLOUDY    60  57  89 CALM      29.94F
MARYSVILLE     CLOUDY    59  57  94 SE6       29.97R
OLATHE IND     CLOUDY    64  58  80 E5        29.97S
OLATHE EXE     CLOUDY    63  59  87 E5        29.95F
SALINA         CLOUDY    63  57  81 SE6       29.94F
TOPEKA BILLARD CLOUDY    60  57  89 CALM      29.96S
TOPEKA FORBES  CLOUDY    60  55  83 CALM      29.96S
$$



USA.gov is the U.S. government's official web portal to all federal, state and local government web resources and services.